• en France
  • Liste des pays
  • À 7 jours
  • Température de l'eau
  • Carte satellitaire
  • Carte météo
  • Widgets météo
  • user-avatar
    Se connecter

    Météo par heure à Albena

    Ce jour, 16 Juillet, Lundi

    Heure Température Précipitation Vent Pression Humidité
    00:00 +22°C° 0 mm 4 m/s 742 mmHg 63%
    01:00 +21°C° 0 mm 4 m/s 742 mmHg 65%
    02:00 +21°C° 0 mm 4 m/s 742 mmHg 65%
    03:00 +20°C° 0,1 mm 4 m/s 742 mmHg 68%
    04:00 +19°C° 0,1 mm 4 m/s 742 mmHg 71%
    05:00 +17°C° 0,1 mm 5 m/s 742 mmHg 74%
    06:00 +20°C° 0 mm 5 m/s 742 mmHg 70%
    07:00 +22°C° 0 mm 5 m/s 742 mmHg 65%
    08:00 +25°C° 0 mm 4 m/s 742 mmHg 59%
    09:00 +26°C° 0 mm 4 m/s 742 mmHg 54%
    10:00 +27°C° 0 mm 4 m/s 742 mmHg 48%
    11:00 +29°C° 0 mm 5 m/s 742 mmHg 43%
    12:00 +29°C° 0 mm 4 m/s 742 mmHg 43%
    13:00 +30°C° 0 mm 3 m/s 742 mmHg 42%
    14:00 +30°C° 0 mm 3 m/s 742 mmHg 41%
    15:00 +30°C° 0 mm 3 m/s 742 mmHg 43%
    16:00 +30°C° 0 mm 3 m/s 742 mmHg 44%
    17:00 +30°C° 0 mm 3 m/s 742 mmHg 45%
    18:00 +28°C° 0 mm 3 m/s 742 mmHg 50%
    19:00 +26°C° 0 mm 3 m/s 742 mmHg 55%
    20:00 +25°C° 0 mm 3 m/s 741 mmHg 60%
    21:00 +24°C° 0 mm 3 m/s 741 mmHg 61%
    22:00 +22°C° 0 mm 4 m/s 742 mmHg 63%
    23:00 +21°C° 0 mm 4 m/s 742 mmHg 64%

    Demain, 17 Juillet, Mardi

    Heure Température Précipitation Vent Pression Humidité
    00:00 +21°C° 0 mm 4 m/s 742 mmHg 65%
    01:00 +20°C° 0 mm 3 m/s 741 mmHg 65%
    02:00 +20°C° 0 mm 3 m/s 741 mmHg 65%
    03:00 +20°C° 0 mm 3 m/s 741 mmHg 65%
    04:00 +19°C° 0 mm 3 m/s 741 mmHg 65%
    05:00 +19°C° 0 mm 3 m/s 741 mmHg 65%
    06:00 +21°C° 0 mm 3 m/s 741 mmHg 61%
    07:00 +23°C° 0 mm 4 m/s 741 mmHg 57%
    08:00 +26°C° 0 mm 4 m/s 741 mmHg 54%
    09:00 +27°C° 0 mm 4 m/s 740 mmHg 50%
    10:00 +29°C° 0 mm 4 m/s 740 mmHg 46%
    11:00 +30°C° 0 mm 4 m/s 740 mmHg 42%
    12:00 +32°C° 0 mm 4 m/s 740 mmHg 40%
    13:00 +33°C° 0 mm 4 m/s 739 mmHg 39%
    14:00 +33°C° 0 mm 4 m/s 739 mmHg 37%
    15:00 +33°C° 0 mm 4 m/s 739 mmHg 39%
    16:00 +33°C° 0 mm 4 m/s 738 mmHg 42%
    17:00 +32°C° 0 mm 4 m/s 738 mmHg 44%
    18:00 +30°C° 0 mm 3 m/s 738 mmHg 49%
    19:00 +28°C° 0 mm 3 m/s 738 mmHg 55%
    20:00 +26°C° 0 mm 3 m/s 738 mmHg 60%
    21:00 +25°C° 0,3 mm 3 m/s 738 mmHg 64%
    22:00 +24°C° 0,3 mm 3 m/s 738 mmHg 68%
    23:00 +24°C° 0,3 mm 3 m/s 738 mmHg 72%

    Après-demain, 18 Juillet, Mercredi

    Heure Température Précipitation Vent Pression Humidité
    00:00 +22°C° 0,3 mm 4 m/s 738 mmHg 74%
    01:00 +21°C° 0,3 mm 4 m/s 738 mmHg 77%
    02:00 +21°C° 0,3 mm 4 m/s 738 mmHg 79%
    03:00 +20°C° 0 mm 5 m/s 738 mmHg 81%
    04:00 +20°C° 0 mm 6 m/s 738 mmHg 83%
    05:00 +20°C° 0 mm 6 m/s 738 mmHg 85%
    06:00 +21°C° 0 mm 6 m/s 738 mmHg 81%
    07:00 +21°C° 0 mm 6 m/s 738 mmHg 78%
    08:00 +22°C° 0 mm 6 m/s 738 mmHg 74%
    09:00 +24°C° 0,1 mm 6 m/s 738 mmHg 67%
    10:00 +27°C° 0,1 mm 6 m/s 738 mmHg 60%
    11:00 +29°C° 0,1 mm 6 m/s 738 mmHg 53%
    12:00 +29°C° 0,6 mm 6 m/s 738 mmHg 52%
    13:00 +30°C° 0,6 mm 5 m/s 738 mmHg 51%
    14:00 +30°C° 0,6 mm 5 m/s 738 mmHg 50%
    15:00 +30°C° 0,1 mm 5 m/s 737 mmHg 50%
    16:00 +29°C° 0,1 mm 6 m/s 737 mmHg 51%
    17:00 +29°C° 0,1 mm 6 m/s 737 mmHg 52%
    18:00 +27°C° 0 mm 6 m/s 737 mmHg 56%
    19:00 +26°C° 0 mm 5 m/s 737 mmHg 61%
    20:00 +23°C° 0 mm 5 m/s 737 mmHg 66%
    21:00 +23°C° 0 mm 6 m/s 738 mmHg 69%
    22:00 +22°C° 0 mm 6 m/s 738 mmHg 73%
    23:00 +21°C° 0 mm 7 m/s 738 mmHg 76%

    19 Juillet, Jeudi

    Heure Température Précipitation Vent Pression Humidité
    00:00 +21°C° 0,1 mm 7 m/s 738 mmHg 78%
    01:00 +20°C° 0,1 mm 7 m/s 738 mmHg 81%
    02:00 +20°C° 0,1 mm 7 m/s 738 mmHg 83%
    03:00 +18°C° 0 mm 7 m/s 738 mmHg 84%
    04:00 +19°C° 0 mm 6 m/s 738 mmHg 86%
    05:00 +19°C° 0 mm 6 m/s 738 mmHg 87%
    06:00 +20°C° 0 mm 6 m/s 738 mmHg 82%
    07:00 +21°C° 0 mm 6 m/s 739 mmHg 77%
    08:00 +22°C° 0 mm 6 m/s 739 mmHg 73%
    09:00 +25°C° 0 mm 5 m/s 739 mmHg 67%
    10:00 +27°C° 0 mm 4 m/s 739 mmHg 60%
    11:00 +28°C° 0 mm 3 m/s 739 mmHg 54%
    12:00 +29°C° 0,3 mm 3 m/s 739 mmHg 53%
    13:00 +29°C° 0,3 mm 2 m/s 739 mmHg 52%
    14:00 +30°C° 0,3 mm 2 m/s 739 mmHg 51%
    15:00 +29°C° 0,1 mm 2 m/s 739 mmHg 53%
    16:00 +29°C° 0,1 mm 3 m/s 739 mmHg 56%
    17:00 +29°C° 0,1 mm 3 m/s 739 mmHg 58%
    18:00 +27°C° 0,1 mm 3 m/s 739 mmHg 63%
    19:00 +26°C° 0,1 mm 3 m/s 740 mmHg 69%
    20:00 +25°C° 0,1 mm 4 m/s 740 mmHg 74%
    21:00 +23°C° 0 mm 4 m/s 740 mmHg 77%
    22:00 +22°C° 0 mm 4 m/s 740 mmHg 79%
    23:00 +22°C° 0 mm 4 m/s 740 mmHg 82%

    20 Juillet, Vendredi

    Heure Température Précipitation Vent Pression Humidité
    00:00 +21°C° 0,2 mm 4 m/s 740 mmHg 84%
    01:00 +21°C° 0,2 mm 5 m/s 740 mmHg 86%
    02:00 +21°C° 0,2 mm 5 m/s 740 mmHg 87%
    03:00 +21°C° 0,3 mm 5 m/s 740 mmHg 89%
    04:00 +20°C° 0,3 mm 5 m/s 740 mmHg 90%
    05:00 +20°C° 0,3 mm 5 m/s 740 mmHg 92%
    06:00 +22°C° 0,2 mm 5 m/s 741 mmHg 86%
    07:00 +23°C° 0,2 mm 6 m/s 741 mmHg 80%
    08:00 +26°C° 0,2 mm 6 m/s 741 mmHg 74%
    09:00 +27°C° 0,2 mm 6 m/s 741 mmHg 69%
    10:00 +28°C° 0,2 mm 6 m/s 742 mmHg 63%
    11:00 +30°C° 0,2 mm 5 m/s 742 mmHg 57%
    12:00 +32°C° 0,1 mm 5 m/s 742 mmHg 54%
    13:00 +32°C° 0,1 mm 4 m/s 742 mmHg 50%
    14:00 +33°C° 0,1 mm 4 m/s 741 mmHg 47%
    15:00 +31°C° 0,1 mm 3 m/s 741 mmHg 49%
    16:00 +31°C° 0,1 mm 3 m/s 741 mmHg 52%
    17:00 +30°C° 0,1 mm 3 m/s 741 mmHg 54%
    18:00 +29°C° 0,1 mm 2 m/s 742 mmHg 59%
    19:00 +28°C° 0,1 mm 2 m/s 742 mmHg 64%
    20:00 +26°C° 0,1 mm 2 m/s 742 mmHg 69%
    21:00 +26°C° 0,1 mm 2 m/s 742 mmHg 71%
    22:00 +25°C° 0,1 mm 2 m/s 742 mmHg 72%
    23:00 +25°C° 0,1 mm 2 m/s 742 mmHg 74%

    21 Juillet, Samedi

    Heure Température Précipitation Vent Pression Humidité
    00:00 +24°C° 0,3 mm 3 m/s 742 mmHg 77%
    01:00 +24°C° 0,3 mm 3 m/s 742 mmHg 79%
    02:00 +22°C° 0,3 mm 3 m/s 742 mmHg 82%
    03:00 +22°C° 0,3 mm 3 m/s 742 mmHg 83%
    04:00 +22°C° 0,3 mm 3 m/s 742 mmHg 85%
    05:00 +21°C° 0,3 mm 3 m/s 742 mmHg 86%
    06:00 +22°C° 0 mm 3 m/s 743 mmHg 81%
    07:00 +25°C° 0 mm 3 m/s 743 mmHg 77%
    08:00 +26°C° 0 mm 3 m/s 743 mmHg 73%
    09:00 +27°C° 0,5 mm 3 m/s 743 mmHg 68%
    10:00 +28°C° 0,5 mm 2 m/s 743 mmHg 63%
    11:00 +29°C° 0,5 mm 2 m/s 743 mmHg 59%
    12:00 +30°C° 0,7 mm 2 m/s 743 mmHg 58%
    13:00 +30°C° 0,7 mm 2 m/s 743 mmHg 57%
    14:00 +30°C° 0,7 mm 3 m/s 743 mmHg 56%
    15:00 +30°C° 0,2 mm 2 m/s 742 mmHg 57%
    16:00 +30°C° 0,2 mm 2 m/s 742 mmHg 57%
    17:00 +30°C° 0,2 mm 2 m/s 742 mmHg 57%
    18:00 +29°C° 0 mm 2 m/s 742 mmHg 63%
    19:00 +27°C° 0 mm 2 m/s 742 mmHg 69%
    20:00 +26°C° 0 mm 2 m/s 742 mmHg 75%
    21:00 +25°C° 0 mm 2 m/s 742 mmHg 78%
    22:00 +24°C° 0 mm 2 m/s 742 mmHg 81%
    23:00 +24°C° 0 mm 1 m/s 742 mmHg 84%
    Voir plus